Погода в Антсалове

Мадагаскар     18°39′56″S   44°37′51″E
темп.,
°C
ветер,
м/с
пор.,
м/с
влажн.,
%
обл.,
%
осадки,
мм/ч
давл.,
гПа
погр.,
м
28 ноября, вс
вс2800:00+21вюв00760 0.0 101411
03:00+20св11811 0.0 101312
06:00+21св11775 0.0 101459
09:00+30сз22400 0.0 1014934
12:00+35зсз343111 0.0 10112516
15:00+31з66420 0.0 10101074
18:00+26з33600 0.0 1012655
21:00+22зсз11750 0.0 101453
29 ноября, пн
пн2900:00+21зюз00810 0.0 101335
03:00+21св11820 0.0 101216
06:00+22ю00770 0.0 101472
09:00+30ссз245163 0.0 10141512
12:00+31ссз2446100 0.1 10121722
15:00+32зсз3346100 0.3 10101613
18:00+27з2467100 0.1 1012285
21:00+23з13844 0.1 1014174
30 ноября, вт
вт3000:00+23ю128554 0.0 1013206
03:00+23ююв11896 0.0 101239
06:00+23вюв11850 0.0 101385
09:00+33зсз12450 0.0 10131221
12:00+32з1248100 0.3 10111213
15:00+28з356697 2.1 1011393
18:00+27з477448 5.9 1011401
21:00+23ссз1192100 29.5 101348
1 декабря, ср
ср100:00+21в1286100 24.6 101437
03:00+21в2285100 24.6 101334
06:00+22в118287 0.0 101329
09:00+30ссв12548 0.0 1014754
12:00+35св22388 0.0 10122156
15:00+34з323835 0.0 10091763
18:00+28з246497 0.2 1012236
21:00+25ю118492 1.8 101442
2 декабря, чт
чт200:00+23юв288899 5.8 1014228
03:00+22ссв3591100 5.9 1012113
06:00+24в1285100 0.0 101459
09:00+31св235151 0.0 1014848
12:00+35всв22384 0.0 10132082
15:00+34з113981 0.0 10111586
18:00+26зюз367459 0.1 1013400
21:00+25вюв227980 0.3 101590